Pontiac, MI

7:33 PM EST on November 18, 2019 (GMT -0500)
Oakland County International

Weather History for KPTK - June, 2019

Change the Weather History Date:

Tuesday, June 4, 2019

  Actual Average Record
Temperature  
Mean Temperature 64 °F -  
Max Temperature 79 °F 70 °F 90 °F (2011)
Min Temperature 48 °F 50 °F 41 °F (1998)
Degree Days  
Heating Degree Days 2    
Growing Degree Days 14 (Base 50)    
Moisture  
Dew Point 49 °F    
Average Humidity 59    
Maximum Humidity 90    
Minimum Humidity 34    
Precipitation  
Precipitation 0.00 in - - ()
Sea Level Pressure  
Sea Level Pressure 29.97 in    
Wind  
Wind Speed 6 mph (SSW)    
Max Wind Speed 18 mph    
Max Gust Speed 24 mph    
Visibility 10 miles    
Events      
Averages and records for this station are not official NWS values.
T = Trace of Precipitation, MM = Missing Value Source: NWS Daily Summary

Daily Weather History Graph

Daily Weather History Graph

Search for Another Location

Airport or City:

Astronomy

Jun. 04, 2019 Rise Set
Actual Time 5:57 AM EDT 9:07 PM EDT
Civil Twilight 5:22 AM EDT 9:41 PM EDT
Nautical Twilight 4:38 AM EDT 10:25 PM EDT
Astronomical Twilight 3:45 AM EDT 11:19 PM EDT
Moon 7:05 AM EDT (6/4) 10:34 PM EDT (6/4)
Length of Visible Light 16h 18m
Length of Day
15h 09m
New Moon, 2% of the Moon is Illuminated
Jun 4
New Moon
Jun 10
First Quarter
Jun 17
Full
Jun 25
Last Quarter
Jul 2
New

Hourly Weather History & Observations

Time (EDT) Temp. Dew Point Humidity Pressure Visibility Wind Dir Wind Speed Gust Speed Precip Events Conditions
12:53 AM 53.1 °F 43.0 °F 69% 30.09 in 10.0 mi South 3.5 mph - N/A   Partly Cloudy
1:53 AM 54.0 °F 44.1 °F 69% 30.07 in 10.0 mi Calm Calm - N/A   Partly Cloudy
2:53 AM 53.1 °F 45.0 °F 74% 30.07 in 10.0 mi SW 3.5 mph - N/A   Clear
3:53 AM 52.0 °F 44.1 °F 74% 30.08 in 10.0 mi WSW 4.6 mph - N/A   Mostly Cloudy
4:53 AM 53.1 °F 44.1 °F 71% 30.07 in 10.0 mi Calm Calm - N/A   Partly Cloudy
5:53 AM 51.1 °F 45.0 °F 80% 30.06 in 10.0 mi Calm Calm - N/A   Mostly Cloudy
6:53 AM 48.9 °F 46.0 °F 90% 30.06 in 10.0 mi Calm Calm - N/A   Mostly Cloudy
7:53 AM 55.0 °F 46.0 °F 72% 30.05 in 10.0 mi South 3.5 mph - N/A   Partly Cloudy
8:53 AM 61.0 °F 43.0 °F 52% 30.04 in 10.0 mi South 8.1 mph - N/A   Partly Cloudy
9:53 AM 64.9 °F 42.1 °F 43% 30.03 in 10.0 mi South 8.1 mph - N/A   Partly Cloudy
10:53 AM 68.0 °F 48.0 °F 49% 30.02 in 10.0 mi SW 8.1 mph - N/A   Partly Cloudy
11:53 AM 72.0 °F 51.1 °F 48% 30.00 in 10.0 mi SSW 8.1 mph 19.6 mph N/A   Mostly Cloudy
12:53 PM 73.0 °F 52.0 °F 48% 29.98 in 10.0 mi SW 10.4 mph - N/A   Mostly Cloudy
1:53 PM 72.0 °F 52.0 °F 49% 29.96 in 10.0 mi WSW 15.0 mph 20.7 mph N/A   Overcast
2:53 PM 71.8 °F 52.2 °F 50% - 10.0 mi WSW 13.8 mph 20.7 mph N/A   Overcast
3:53 PM 79.0 °F 48.0 °F 34% 29.90 in 10.0 mi WSW 13.8 mph 23.0 mph N/A   Overcast
4:53 PM 73.9 °F 51.1 °F 45% 29.88 in 10.0 mi SW 18.4 mph 24.2 mph N/A   Overcast
5:53 PM 73.0 °F 52.0 °F 48% 29.87 in 10.0 mi SW 15.0 mph 20.7 mph N/A   Overcast
6:53 PM 72.0 °F 52.0 °F 49% 29.87 in 10.0 mi WSW 13.8 mph 20.7 mph N/A   Overcast
7:53 PM 72.0 °F 54.0 °F 53% 29.86 in 10.0 mi SW 8.1 mph - N/A   Mostly Cloudy
8:53 PM 71.1 °F 55.0 °F 57% 29.83 in 10.0 mi South 4.6 mph - N/A   Mostly Cloudy
9:53 PM 69.1 °F 55.9 °F 63% 29.83 in 10.0 mi South 4.6 mph - N/A   Overcast
10:53 PM 68.0 °F 55.9 °F 65% 29.84 in 10.0 mi South 4.6 mph - N/A   Overcast
11:53 PM 68.0 °F 57.0 °F 68% 29.81 in 10.0 mi South 4.6 mph - N/A   Overcast